Regional Weather Roundup
Issued by NWS New Orleans/Baton Rouge, LA

Home | Current Version | Previous Version | Text Only | Print | Product List | Glossary On
Versions: 1 2 3 4 5 6 7 8 9 10 11 12 13 14 15 16 17 18 19 20 21 22 23 24 25 26 27 28 29 30 31 32 33 34 35 36 37 38 39 40 41 42 43 44 45 46 47 48 49 50
000
ASUS44 KLIX 060113
RWRLIX
NEW ORLEANS REGIONAL WEATHER ROUNDUP
NATIONAL WEATHER SERVICE NEW ORLEANS LA
700 PM CST MON DEC 05 2016

NOTE: "FAIR" INDICATES FEW OR NO CLOUDS BELOW 12,000 FEET WITH NO
      SIGNIFICANT WEATHER AND/OR OBSTRUCTIONS TO VISIBILITY.
      SKY/WX - SKY CONDITION AND SIGNIFICANT WEATHER.
      TMP - AIR TEMPERATURE.     DP    - DEWPOINT TEMPERATURE.
      RH  - RELATIVE HUMIDITY.   PRES  - PRESSURE.
      HI  - HEAT INDEX.          WCI   - WIND CHILL INDEX.

*  THESE STATIONS ARE NOT NWS OR FAA STATIONS AND ARE NOT UNDER
   NWS QUALITY CONTROL.

LAZ038-040-048-061>063-065>067-069-060200-
SOUTHEAST LOUISIANA

CITY           SKY/WX    TMP DP  RH WIND       PRES   REMARKS
N.O. AUDUBON   NOT AVBL
N.O. INTL ARPT TSTM      63  63 100 E13       29.71S FOG
N.O. LAKEFRONT CLOUDY    63  62  97 E10       29.72S
N.O. DOWNTOWN*   N/A     64  62  93 VRB3      29.72S
RESERVE*       CLOUDY    65  63  94 E5        29.70S
SLIDELL        CLOUDY    62  61  96 VRB5      29.70F
BATON ROUGE    CLOUDY    61  61 100 E6        29.67F
BOOTHVILLE     CLOUDY    62  62 100 E12       29.73F
BELLE CHASSE   CLOUDY    63  62  97 E7        29.70F FOG
BOGALUSA*      CLOUDY    60  57  89 CALM      29.73S
GALLIANO*      CLOUDY    63  60  90 E5        29.70F
NEW ROADS*     CLOUDY    59  59  98 E3        29.68S
GONZALES*      CLOUDY    62  62  99 CALM      29.68F
HAMMOND*       CLOUDY    61  59  94 E5        29.70S FOG
HOUMA*         CLOUDY    63  63  99 E3        29.70S
PORT FOURCHON* CLOUDY    68  66  94 NE12      29.70S

$$

MSZ070-080>082-060200-
SOUTHERN MISSISSIPPI

CITY           SKY/WX    TMP DP  RH WIND       PRES   REMARKS
MCCOMB         CLOUDY    57  55  93 SE6       29.70S
GULFPORT       CLOUDY    62  61  96 E7        29.72S
BILOXI         CLOUDY    62  62 100 NE7       29.71F
PASCAGOULA     CLOUDY    62  58  86 E8        29.73F
STENNIS ARPT*  CLOUDY    61  57  88 SE3       29.72F

$$

COASTAL OBSERVATIONS
LAKE AND NEARSHORE STATIONS

STATION/POSITION TIME  TEMP    WIND        PRES    WAVE
                       AIR SEA DIR/SP/G            HT/PER
                 (UTC) (F)     (DEG/KT/KT) (MB)    (FT/S)
PASCAGOULA       0048   62      60/  8/ 12 1006.2
WAVELAND YACHT   0048           90/  7/  9   N/A
GRAND ISLE       0048   65 68   80/  9/ 14 1005.9
SOUTHWEST PASS   0048           60/ 13/ 15   N/A
NEW CANAL        0048   63 62  100/  2/  6 1005.1
SHELL BEACH      0048   63 64   90/ 11/ 13 1006.2

OFFSHORE STATIONS

STATION/POSITION TIME  TEMP    WIND        PRES    WAVE
                       AIR SEA DIR/SP/G            HT/PER
                 (UTC) (F)     (DEG/KT/KT) (MB)    (FT/S)
64 S DAUPHIN ISL 0050   69 75   30/ 14/ 16 1006.8    5/ 8

$$




USA.gov is the U.S. government's official web portal to all federal, state and local government web resources and services.